Weather Service Report


510 
ASUS45 KSLC 171410
RWRUT 

UTAH REGIONAL WEATHER ROUNDUP
NATIONAL WEATHER SERVICE SALT LAKE CITY UT
700 AM MST TUE JAN 17 2017

UTZ001>011-023>025-171500-

NORTHERN UTAH
  
CITY           SKY/WX    TMP DP  RH WIND       PRES   REMARKS
BRIGHAM CITY     N/A      8   3  82 N3        30.30S                  
HILL AFB       PTCLDY    10   2  72 E16       30.25S WCI  -8          
LOGAN          CLEAR     -1  -4  87 CALM      30.30S FOG              
OGDEN          MOCLDY    11   5  77 S7        30.26S WCI   0          
SALT LAKE CITY PTCLDY    19  16  88 CALM      30.27S                  
TOOELE VALLEY  PTCLDY    18  14  86 S3        30.27F                  
WENDOVER       CLOUDY    23  18  80 CALM      30.27S                  
HEBER CITY     SNOW      -9 -17  70 CALM      30.24S VSB 1/2          
WEST JORDAN    PTCLDY    18  18 100 S3        30.25F                  

$$

UTZ011>015-024>027-171500-

CENTRAL/NORTHEAST UTAH
  
CITY           SKY/WX    TMP DP  RH WIND       PRES   REMARKS
PROVO AIRPORT  MOCLDY    16  12  84 S3        30.28S                  
MOAB/CANYONLAN CLEAR     27  21  78 CALM      30.16S                  
DELTA          CLEAR     14  14 100 E3        30.23S                  
PRICE          PTCLDY     7   0  73 CALM      30.14R                  
ROOSEVELT      CLOUDY    18  14  86 SW3       30.29R FOG              
VERNAL         CLOUDY    16  14  92 CALM      30.26R FOG              

$$

UTZ013>016-019>022-027-171500-

SOUTHERN UTAH
  
CITY           SKY/WX    TMP DP  RH WIND       PRES   REMARKS
BRYCE CANYON   FOG       10   6  84 N6        30.14S VSB 3/4 WCI   0  
CEDAR CITY     PTCLDY    15  11  83 CALM      30.16R                  
MILFORD        CLEAR     16  12  84 CALM      30.21R                  
ST GEORGE      MOSUNNY   30  21  69 CALM      30.20S                  
HANKSVILLE     PTCLDY    23  21  93 MISG      30.21R                  
KANAB          CLEAR     30  18  59 N16       30.18R WCI  19          
BLANDING       CLOUDY    33  28  81 CALM      30.20R                  

$$

REGIONAL REPORTS     COLORADO/ARIZONA
  
CITY           SKY/WX    TMP DP  RH WIND       PRES   REMARKS
CRAIG, CO      CLOUDY    15  12  88 S3        30.20S                  
GRAND JUNCTION PTCLDY    25  21  85 CALM      30.18R                  
RIFLE, CO      CLOUDY    18  14  84 E6        30.20R WCI  10          
MONTROSE, CO   CLOUDY    30  28  92 NW3       30.18R                  
CORTEZ, CO     CLOUDY    33  32  96 CALM      30.12S                  
COLORADO CITY    N/A     23  21  93 SE3       30.16R                  
PAGE, AZ       CLEAR     33  24  69 CALM      30.15R                  
GRAND CANYON   CLEAR     23  23 100 CALM      30.10R                  
KINGMAN, AZ    CLEAR     32  21  64 E8        30.11R WCI  25          
FLAGSTAFF, AZ  CLOUDY    27  22  81 CALM      30.08R                  

$$

REGIONAL REPORTS    NEVADA/IDAHO/WYOMING
  
CITY           SKY/WX    TMP DP  RH WIND       PRES   REMARKS
LAS VEGAS, NV  CLEAR     38  22  52 SW3       30.14R                  
ELY, NY        PTCLDY    -2  -6  83 S12       30.18S WCI -20          
ELKO, NV       CLOUDY    15  12  88 NE7       30.25R WCI   5          
POCATELLO, ID  CLOUDY    -2  -6  83 CALM      30.28S                  
BURLEY, ID     CLEAR      6   0  76 NE10      30.26R WCI  -9          
FORT BRIDGER,    N/A      8   3  77 W7        30.15R WCI  -3          
EVANSTON, WY   CLOUDY     5  -1  76 SE7       30.13F WCI  -7          
ROCK SPRINGS,  CLOUDY   -11 -16  78 S6        30.15R HAZE    WCI -25  

$$
  

Return to Home page


Western Regional Climate Center, wrcc@dri.edu